Orange, MA

1:30 PM EDT on March 29, 2017 (GMT -0400)
Orange Municipal

Weather History for KORE - September, 2012

Change the Weather History Date:

Saturday, September 8, 2012

  Actual Average Record
Temperature  
Mean Temperature 70 °F -  
Max Temperature 80 °F 73 °F 91 °F (2015)
Min Temperature 60 °F 50 °F 44 °F (2000)
Cooling Degree Days 5    
Growing Degree Days 20 (Base 50)    
Moisture  
Dew Point 67 °F    
Average Humidity 83    
Maximum Humidity 100    
Minimum Humidity 56    
Precipitation  
Precipitation 0.46 in - - ()
Sea Level Pressure  
Sea Level Pressure 29.72 in    
Wind  
Wind Speed 10 mph (South)    
Max Wind Speed 20 mph    
Max Gust Speed 34 mph    
Visibility 9 miles    
Events Rain , Thunderstorm    
Averages and records for this station are not official NWS values.
T = Trace of Precipitation, MM = Missing Value Source: NWS Daily Summary

Daily Weather History Graph

Daily Weather History Graph

Search for Another Location

Airport or City:

Trip Planner

Search our weather history database for the weather conditions in past years. The results will help you decide how hot, cold, wet, or windy it might be!

Date:

Astronomy

Sep. 08, 2012 Rise Set
Actual Time 6:22 AM EDT 7:10 PM EDT
Civil Twilight 5:53 AM EDT 7:38 PM EDT
Nautical Twilight 5:19 AM EDT 8:12 PM EDT
Astronomical Twilight 4:44 AM EDT 8:47 PM EDT
Moon 11:44 PM EDT (9/8) 2:10 PM EDT (9/8)
Length of Visible Light 13h 45m
Length of Day
12h 48m
Waning Gibbous, 49% of the Moon is Illuminated
Sep 8
Waning Gibbous
Sep 15
New
Sep 22
First Quarter
Sep 29
Full
Oct 8
Last Quarter

Hourly Weather History & Observations

Time (EDT) Temp. Heat Index Dew Point Humidity Pressure Visibility Wind Dir Wind Speed Gust Speed Precip Events Conditions
12:52 AM 72.0 °F - 70.0 °F 93% 29.85 in 8.0 mi SSE 5.8 mph - N/A   Overcast
1:39 AM 71.6 °F - 69.8 °F 94% 29.89 in 7.0 mi SSW 3.5 mph - N/A   Scattered Clouds
1:52 AM 70.0 °F - 69.1 °F 97% 29.88 in 6.0 mi South 3.5 mph - N/A   Partly Cloudy
2:17 AM 71.6 °F - 69.8 °F 94% 29.88 in 7.0 mi SSE 6.9 mph - N/A   Mostly Cloudy
2:52 AM 71.1 °F - 69.1 °F 93% 29.86 in 9.0 mi South 8.1 mph - N/A   Overcast
3:39 AM 71.6 °F - 69.8 °F 94% 29.85 in 10.0 mi South 9.2 mph - N/A   Overcast
3:52 AM 72.0 °F - 69.1 °F 91% 29.84 in 10.0 mi South 11.5 mph 17.3 mph N/A   Overcast
4:44 AM 71.6 °F - 68.0 °F 88% 29.84 in 10.0 mi South 13.8 mph 19.6 mph N/A   Overcast
4:52 AM 72.0 °F - 68.0 °F 87% 29.83 in 10.0 mi South 10.4 mph 19.6 mph N/A   Overcast
6:52 AM 72.0 °F - 66.9 °F 84% 29.84 in 10.0 mi South 10.4 mph 17.3 mph N/A   Overcast
7:52 AM 72.0 °F - 66.9 °F 84% 29.83 in 10.0 mi South 13.8 mph - N/A   Overcast
8:04 AM 73.4 °F - 66.2 °F 78% 29.83 in 10.0 mi South 13.8 mph 21.9 mph N/A   Overcast
8:52 AM 73.0 °F - 66.9 °F 81% 29.81 in 10.0 mi SSE 11.5 mph - N/A   Overcast
9:45 AM 73.4 °F - 66.2 °F 78% 29.80 in 9.0 mi South 11.5 mph 17.3 mph N/A   Mostly Cloudy
9:52 AM 73.9 °F - 66.9 °F 79% 29.80 in 9.0 mi South 10.4 mph 18.4 mph N/A   Mostly Cloudy
10:52 AM 77.0 °F - 64.9 °F 66% 29.77 in 10.0 mi South 15.0 mph 23.0 mph N/A   Scattered Clouds
11:52 AM 80.1 °F 81.5 °F 63.0 °F 56% 29.75 in 10.0 mi South 18.4 mph 27.6 mph N/A   Clear
12:52 PM 80.1 °F 81.5 °F 63.0 °F 56% 29.71 in 10.0 mi South 16.1 mph 28.8 mph N/A   Scattered Clouds
1:52 PM 78.1 °F - 64.9 °F 64% 29.67 in 10.0 mi South 13.8 mph 23.0 mph 0.00 in Rain Light Rain
2:52 PM 78.1 °F - 68.0 °F 71% 29.64 in 10.0 mi South 15.0 mph 34.5 mph 0.00 in   Overcast
3:20 PM 78.8 °F - 69.8 °F 74% 29.63 in 10.0 mi South 17.3 mph 29.9 mph N/A   Overcast
3:34 PM 75.2 °F - 69.8 °F 83% 29.62 in 7.0 mi South 10.4 mph 20.7 mph 0.01 in Rain Light Rain
3:52 PM 75.9 °F - 70.0 °F 82% 29.60 in 9.0 mi SSE 6.9 mph - 0.01 in Rain Light Rain
4:04 PM 77.0 °F - 69.8 °F 78% 29.60 in 10.0 mi South 15.0 mph 25.3 mph 0.00 in Rain Light Rain
4:21 PM 78.8 °F - 69.8 °F 74% 29.61 in 10.0 mi South 15.0 mph 28.8 mph 0.01 in   Overcast
4:52 PM 78.1 °F - 70.0 °F 76% 29.60 in 10.0 mi South 12.7 mph 23.0 mph 0.01 in   Mostly Cloudy
4:59 PM 78.8 °F - 69.8 °F 74% 29.60 in 10.0 mi South 19.6 mph 26.5 mph N/A   Overcast
5:10 PM 75.2 °F - 71.6 °F 89% 29.59 in 7.0 mi South 13.8 mph 27.6 mph 0.02 in Rain Light Rain
5:52 PM 75.9 °F - 71.1 °F 85% 29.58 in 10.0 mi South 11.5 mph - 0.02 in   Mostly Cloudy
6:10 PM 77.0 °F - 69.8 °F 78% 29.60 in 10.0 mi SSW 12.7 mph 21.9 mph N/A   Overcast
6:33 PM 75.2 °F - 69.8 °F 83% 29.61 in 10.0 mi SSW 11.5 mph - N/A   Overcast
6:41 PM 75.2 °F - 69.8 °F 83% 29.61 in 10.0 mi South 11.5 mph - N/A   Overcast
6:52 PM 75.9 °F - 70.0 °F 82% 29.61 in 10.0 mi SSW 15.0 mph 20.7 mph N/A   Mostly Cloudy
7:14 PM 66.2 °F - 59.0 °F 78% 29.65 in 10.0 mi WNW 17.3 mph 34.5 mph N/A Thunderstorm Mostly Cloudy
7:30 PM 62.6 °F - 59.0 °F 88% 29.68 in 1.8 mi WNW 12.7 mph 26.5 mph 0.21 in Rain , Thunderstorm Heavy Thunderstorms and Rain
7:40 PM 60.8 °F - 59.0 °F 94% 29.67 in 2.5 mi NW 9.2 mph 20.7 mph 0.31 in Rain , Thunderstorm Heavy Thunderstorms and Rain
7:52 PM 61.0 °F - 59.0 °F 93% 29.67 in 5.0 mi NNW 10.4 mph - 0.34 in Rain , Thunderstorm Rain
8:23 PM 60.8 °F - 60.8 °F 100% 29.71 in 10.0 mi Calm Calm - 0.05 in Rain Light Rain
8:52 PM 61.0 °F - 60.1 °F 97% 29.71 in 10.0 mi SE 3.5 mph - 0.06 in Rain Light Rain
9:52 PM 62.1 °F - 61.0 °F 96% 29.71 in 10.0 mi Calm Calm - 0.02 in   Overcast
10:52 PM 62.1 °F - 59.0 °F 90% 29.73 in 10.0 mi Calm Calm - N/A   Overcast
11:52 PM 62.1 °F - 59.0 °F 90% 29.73 in 10.0 mi SW 4.6 mph - 0.00 in   Overcast